SCP
0 0 0 0 0 0 0 0 0 0 0 0 0 0 0 0 0 0 0 0 0 0 0 0 0 0 0 0 0 0 0 0 0 0 0 0 0 0
0 0 0 0 0 0 0 0 0 0 0 0 0 0 0 0 0 0 0 0 0 0 0 0 0 0 0 0 0 0 0 0 0 0 0 0 0 0
0 0 0 0 0 0 0 0 0 0 0 0 0 0 0 0 0 0 0 0 0 0 0 0 0 0 0 0 0 0 0 0 0 0 0 0 0 0
0 0 0 0 0 0 0 0 0 0 0 0 0 0 0 0 0 0 0 0 0 0 0 0 0 0 0 0 0 0 0 0 0 0 0 0 0 0
0 0 0 0 0 0 0 0 0 0 0 0 0 0 0 0 0 0 0 0 0 0 0 0 0 0 0 0 0 0 0 0 0 0 0 0 0 0
0 0 0 0 0 0 0 0 0 0 0 0 0 0 0 0 0 0 0 0 0 0 0 0 0 0 0 0 0 0 0 0 0 0 0 0 0 0
0 0 0 0 0 0 0 0 0 0 0 0 0 0 0 0 0 0 0 0 0 0 0 0 0 0 0 0 0 0 0 0 0 0 0 0 0 0
0 0 0 0 0 0 0 0 0 0 0 0 0 0 0 0 0 0 0 0 0 0 0 0 0 0 0 0 0 0 0 0 0 0 0 0 0 0
0 0 0 0 0 0 0 0 0 0 0 0 0 0 0 0 0 0 0 0 0 0 0 0 0 0 0 0 0 0 0 0 0 0 0 0 0 0
0 0 0 0 0 0 0 0 0 0 0 0 0 0 0 0 0 0 0 0 0 0 0 0 0 0 0 0 0 0 0 0 0 0 0 0 0 0
0 0 0 0 0 0 0 0 0 0 0 0 0 0 0 0 0 0 0 0 0 0 0 0 0 0 0 0 0 0 0 0 0 0 0 0 0 0
0 0 0 0 0 0 0 0 0 0 0 0 0 0 0 0 0 0 0 0 0 0 0 0 0 0 0 0 0 0 0 0 0 0 0 0 0 0
0 0 0 0 0 0 0 0 0 0 0 0 0 0 0 0 0 0 0 0 0 0 0 0 0 0 0 0 0 0 0 0 0 0 0 0 0 0
0 0 0 0 0 0 0 0 0 0 0 0 0 0 0 0 0 0 0 0 0 0 0 0 0 0 0 0 0 0 0 0 0 0 0 0 0 0
0 0 0 0 0 0 0 0 0 0 0 0 0 0 0 0 0 0 0 0 0 0 0 0 0 0 0 0 0 0 0 0 0 0 0 0 0 0
0 0 0 0 0 0 0 0 0 0 0 0 0 0 0 0 0 0 0 0 0 0 0 0 0 0 0 0 0 0 0 0 0 0 0 0 0 0
0 0 0 0 0 0 0 0 0 0 0 0 0 0 0 0 0 0 0 0 0 0 0 0 0 0 0 0 0 0 0 0 0 0 0 0 0 0
0 0 0 0 0 0 0 0 0 0 0 0 0 0 0 0 0 0 0 0 0 0 0 0 0 0 0 0 0 0 0 0 0 0 0 0 0 0
0 0 0 0 0 0 0 0 0 0 0 0 0 0 0 0 0 0 0 0 0 0 0 0 0 0 0 0 0 0 0 0 0 0 0 0 0 0
0 0 0 0 0 0 0 0 0 0 0 0 0 0 0 0 0 0 0 0 0 0 0 0 0 0 0 0 0 0 0 0 0 0 0 0 0 0
0 0 0 0 0 0 0 0 0 0 0 0 0 0 0 0 0 0 0 0 0 0 0 0 0 0 0 0 0 0 0 0 0 0 0 0 0 0
0 0 0 0 0 0 0 0 0 0 0 0 0 0 0 0 0 0 0 0 0 0 0 0 0 0 0 0 0 0 0 0 0 0 0 0 0 0
0 0 0 0 0 0 0 0 0 0 0 0 0 0 0 0 0 0 0 0 0 0 0 0 0 0 0 0 0 0 0 0 0 0 0 0 0 0
Wind_Speed
6 6 5 5 4 5 5 5 4 4 3 3 2 0 1 2 3 3 3 6 7 6 5 5 4 5 4 4 3 2 2 2 4 7 9 11 12 13
5 6 6 5 4 4 5 5 5 5 4 3 2 1 1 3 4 4 4 8 8 8 8 7 7 7 7 7 6 6 5 5 4 3 4 6 8 9
6 6 7 6 5 4 4 4 5 5 5 3 2 1 2 4 5 5 5 5 5 9 10 10 9 9 9 9 9 8 8 8 8 8 7 7 7 7
7 6 7 6 6 5 4 5 5 5 5 4 2 2 3 6 6 6 5 5 6 10 11 12 11 11 10 10 10 10 10 10 10 11 11 11 11 11
7 7 7 7 7 5 5 5 4 4 4 4 3 2 3 5 7 6 7 6 7 9 12 12 12 12 12 12 12 12 12 12 12 12 13 13 14 14
7 8 8 8 8 7 6 6 5 4 4 5 4 4 4 6 7 7 6 5 5 6 8 9 11 13 12 12 13 13 13 12 13 14 14 14 14 15
7 7 8 10 11 8 6 6 5 5 5 5 5 5 6 8 7 5 8 6 5 4 5 5 5 5 6 9 11 13 12 12 13 13 14 14 14 15
7 7 7 8 10 11 11 10 9 8 8 6 5 8 8 8 7 8 8 8 5 3 4 4 3 4 4 4 8 11 11 12 12 12 13 13 13 14
7 6 7 7 8 6 7 8 9 11 11 8 9 9 10 10 11 10 8 6 5 6 5 5 3 4 3 4 7 9 10 10 11 11 11 12 12 12
7 7 7 7 7 7 6 5 5 6 8 7 8 8 9 10 10 10 10 8 7 4 3 5 3 3 4 3 5 7 8 9 9 10 10 10 11 11
7 7 8 8 10 11 8 6 5 4 5 8 9 10 13 14 12 10 10 10 8 4 2 4 4 3 3 3 3 5 7 7 8 9 9 10 10 9
5 6 10 10 11 12 9 9 8 7 7 9 9 11 11 12 13 11 11 11 9 5 3 4 4 4 3 1 1 2 3 5 7 8 9 10 9 6
5 5 5 11 13 13 10 8 11 10 9 10 9 8 7 7 6 6 6 9 8 5 6 5 4 3 4 3 1 1 1 2 3 4 6 8 8 6
5 4 4 9 12 13 9 10 14 12 8 8 8 7 7 7 5 6 7 6 5 7 8 6 5 5 5 4 3 2 1 1 2 2 3 5 6 7
4 5 5 7 9 9 11 15 14 9 9 9 8 6 5 6 7 7 8 8 8 6 5 6 7 5 5 5 4 3 2 1 2 2 2 2 2 2
4 4 6 7 6 7 10 10 7 8 9 9 8 6 5 6 7 7 8 7 6 4 5 5 9 9 5 5 5 4 3 3 3 2 2 1 1 1
5 3 3 4 5 5 6 6 6 8 8 7 8 8 7 7 6 5 6 6 6 5 4 4 6 6 6 6 5 4 3 2 3 3 3 2 1 2
6 4 5 5 6 7 7 6 6 7 8 8 9 8 8 8 6 5 5 7 7 6 5 4 6 6 5 5 3 5 3 2 2 2 3 3 2 2
5 5 5 5 6 6 7 7 6 7 7 8 8 8 8 7 7 6 6 6 6 5 4 4 5 6 6 3 2 1 4 3 3 2 2 3 3 4
3 5 6 6 6 6 6 6 7 7 7 8 8 7 7 7 7 7 6 7 6 5 3 3 4 5 6 6 4 2 3 5 4 3 2 1 1 1
3 5 5 5 5 5 5 6 7 7 8 8 7 7 7 7 6 6 6 9 6 5 5 4 3 6 4 4 3 1 2 4 6 5 4 3 1 1
4 5 5 5 5 5 6 6 7 7 7 7 6 6 6 7 7 8 7 7 5 5 5 3 3 4 3 4 4 3 2 2 3 5 6 8 6 6
4 4 4 4 5 5 6 7 8 7 6 6 6 6 7 6 6 7 7 7 6 5 5 4 3 2 2 3 4 3 3 3 2 2 5 9 13 12
Wind_Direction
236 234 233 233 226 225 220 213 224 259 270 250 248 244 136 124 144 127 124 137 134 135 133 125 122 122 120 113 119 141 153 189 205 209 211 209 209 212
239 239 241 238 234 227 222 219 213 221 242 236 227 196 158 139 125 115 114 119 114 116 111 107 103 98 97 94 88 87 86 87 100 136 170 181 189 196
248 242 245 241 238 231 223 220 217 208 233 245 217 165 147 137 122 111 106 99 103 104 103 100 96 93 90 86 81 79 80 81 82 87 96 106 118 131
248 243 246 244 238 232 225 223 219 207 209 228 206 168 158 147 136 126 116 106 100 97 98 96 93 90 89 87 82 78 76 76 79 82 85 90 93 96
245 240 241 236 239 233 226 223 219 209 198 196 191 168 147 145 135 122 113 108 104 101 92 89 89 88 87 86 84 80 78 77 78 80 82 84 87 89
244 237 236 230 229 227 227 222 213 201 191 182 177 162 151 147 141 135 126 116 111 102 91 89 87 84 84 87 88 86 83 82 82 82 81 81 82 84
251 241 237 232 226 222 221 212 201 193 184 178 172 163 159 159 152 144 137 125 98 105 106 92 85 77 72 82 89 92 89 87 86 86 86 86 85 85
250 246 240 235 230 227 222 212 200 192 186 180 178 172 167 156 144 146 144 141 129 142 114 98 86 82 71 71 91 97 95 93 92 91 91 91 92 92
244 242 244 231 219 215 213 210 208 202 189 181 177 175 166 161 153 153 156 147 131 150 126 103 88 83 74 80 93 96 96 96 96 97 97 97 96 94
238 234 234 226 216 199 193 196 197 194 189 182 178 172 160 155 155 150 145 121 106 126 122 110 105 88 76 65 83 96 99 100 102 103 103 104 105 100
238 234 230 222 213 195 185 182 173 169 160 148 146 142 143 146 146 138 139 138 135 139 117 109 121 100 77 61 60 85 95 98 102 106 108 111 112 104
238 235 229 219 205 192 184 177 168 161 145 132 128 132 139 144 149 153 152 148 141 139 156 118 138 124 100 57 57 61 74 82 91 101 110 114 115 103
231 229 223 211 200 193 188 183 169 156 146 137 132 131 131 137 140 139 146 149 145 141 156 132 140 127 120 128 114 102 91 85 78 82 101 116 117 114
223 218 214 206 196 188 184 168 155 147 139 134 133 134 134 134 132 129 124 116 123 140 152 142 135 143 126 123 137 130 108 108 107 100 95 103 103 105
204 191 187 183 186 182 169 159 153 146 142 137 136 132 125 125 119 111 103 99 88 94 134 141 132 131 128 133 139 140 134 140 136 130 132 133 141 128
188 173 166 159 168 160 155 156 149 144 143 139 133 125 116 117 123 125 122 116 98 65 47 101 133 132 122 122 129 136 142 151 156 155 142 140 134 150
158 150 148 145 155 147 147 143 135 133 129 129 131 129 126 122 120 115 118 112 111 115 90 60 66 84 107 126 125 132 134 131 150 151 141 147 225 204
151 155 149 151 153 146 144 137 134 136 137 136 136 135 135 133 124 114 115 119 122 124 123 120 111 93 64 32 76 136 133 144 153 150 140 143 215 243
144 147 145 150 147 140 139 135 134 137 136 138 138 138 136 132 129 127 123 121 123 125 126 127 123 120 122 133 317 131 151 154 143 143 165 171 199 226
143 143 145 144 142 138 137 134 133 135 135 137 137 136 136 134 135 136 136 135 133 125 119 119 136 142 151 164 180 221 176 157 155 168 182 176 244 308
142 135 138 137 139 138 136 136 137 138 140 140 140 140 140 137 138 141 142 144 134 132 146 173 188 149 113 98 101 244 253 207 181 172 167 154 178 257
143 139 137 136 139 141 139 138 137 137 140 139 143 143 142 142 145 147 149 151 151 150 157 157 127 121 124 147 174 201 236 256 235 218 203 181 172 193
145 139 140 144 145 144 142 142 143 143 144 144 145 145 143 142 144 147 151 153 150 146 139 140 138 140 158 166 177 195 214 219 215 233 254 239 227 229